This is the latest recevied weather packets stored in our database for station/object WA1OUI. If no packets are shown the sender has not sent any weather packets the latest 10 day(s).
| Time | Temp. | Humidity | Pressure | Rain* | Wind** | Luminosity | Snow |
|---|---|---|---|---|---|---|---|
| 1777829691 | 12.22° C | 36% | 1007.4 hPa | 0 mm | - | 238 W/m² | - |
| 1777829388 | 12.78° C | 36% | 1007.3 hPa | 0 mm | - | 701 W/m² | - |
| 1777829086 | 11.67° C | 35% | 1007.4 hPa | 0 mm | - | 901 W/m² | - |
| 1777828782 | 11.67° C | 36% | 1007.5 hPa | 0 mm | - | 880 W/m² | - |
| 1777828479 | 11.11° C | 40% | 1007.3 hPa | 0 mm | - | 854 W/m² | - |
| 1777828177 | 10.56° C | 38% | 1007.5 hPa | 0 mm | - | 707 W/m² | - |
| 1777827872 | 10.56° C | 38% | 1007.3 hPa | 0 mm | - | 273 W/m² | - |
| 1777827570 | 10.56° C | 37% | 1007.4 hPa | 0 mm | - | 415 W/m² | - |
| 1777827268 | 10.56° C | 43% | 1007.6 hPa | 0 mm | - | 413 W/m² | - |
| 1777826963 | 10.56° C | 37% | 1007.5 hPa | 0 mm | - | 294 W/m² | - |
| 1777826661 | 10.56° C | 39% | 1007.7 hPa | 0 mm | - | 266 W/m² | - |
| 1777826357 | 10.56° C | 39% | 1007.5 hPa | 0 mm | - | 189 W/m² | - |
| 1777826055 | 11.11° C | 41% | 1007.8 hPa | 0 mm | - | 203 W/m² | - |
| 1777825751 | 11.11° C | 39% | 1007.5 hPa | 0 mm | - | 212 W/m² | - |
| 1777825449 | 11.67° C | 39% | 1007.8 hPa | 0 mm | - | 210 W/m² | - |
| 1777825146 | 11.67° C | 40% | 1007.4 hPa | 0 mm | - | 147 W/m² | - |
| 1777824842 | 11.67° C | 42% | 1007.5 hPa | 0 mm | - | 270 W/m² | - |
| 1777824539 | 12.22° C | 38% | 1007.4 hPa | 0 mm | - | 424 W/m² | - |
| 1777824235 | 13.33° C | 39% | 1007.4 hPa | 0 mm | - | 691 W/m² | - |
| 1777823931 | 12.78° C | 43% | 1007.4 hPa | 0 mm | - | 903 W/m² | - |
| 1777823629 | 12.78° C | 44% | 1007.3 hPa | 0 mm | - | 862 W/m² | - |
| 1777823325 | 12.22° C | 44% | 1007.1 hPa | 0 mm | - | 829 W/m² | - |
| 1777823023 | 11.67° C | 44% | 1007 hPa | 0 mm | - | 798 W/m² | - |
| 1777822721 | 11.11° C | 46% | 1007.3 hPa | 0 mm | - | 791 W/m² | - |
| 1777822419 | 11.67° C | 49% | 1007.3 hPa | 0 mm | - | 786 W/m² | - |
* Rain latest hour (hover to see other rain measurements)
** Current wind speed in m/s (hover to see current wind gust speed)